XIWANG-1 (HOPE-1)

Last updated on Tue Aug 25 2026 00:03:13 GMT+0000 (Coordinated Universal Time)

1 36122U 09072B 26236.56705003 -.00000550 00000+0 -13234-2 0 9993 2 36122 100.4073 189.3211 0008196 78.3302 281.8730 13.16438675802006
UTC large
Height (km)
Speed (km/s)
/
Latitude / Longitude
Inclination (degrees)
Orbital Period (minutes)
Azimuth
Elevation
Range (km)
Doppler Factor

Next 0 passes for location: London (51.5072 / 0.1276)

No passes found over London.
XIWANG-1 (HOPE-1)